Zurück zum Katalog

TAIJING-3 04

AktivMilitärSSO
NORAD 64088·PAYLOAD·🇨🇳 China
Dieser Satellitenname wurde noch nicht durch offizielle Quellen bestätigt.

Gestartet May 21, 2025 von Jiuquan Satellite Launch Center

Loading…

Nächste Überflüge (nächste 24 Stunden)

TLE

AktuellSource: Space-Track

Epoche: Sep 14, 2026, 21:42 UTC

1 64088U 25108B   26257.90459101  .00007459  00000-0  35222-3 0  9995
2 64088  97.4658 332.7053 0008816  65.5521 294.6633 15.19689581 72989

Verfolge TAIJING-3 04 in Echtzeit mit AllMySat

Download on the App Store